FW9813 Weather Reports


time (UTC)temp
F
wind
direction
speed
knots
gust
knots
rain 1hr
in
rain 24hr
in
rain mn
in
humidity
%
barometer
mb
20230128003033 13 0 3.5 9.6 0.00 0.00 0.00 67 1012.0
20230128001534 13 277 5.2 9.6 0.00 0.00 0.00 67 1011.8
20230128000034 14 246 5.2 10.4 0.00 0.00 0.00 67 1011.4
20230127234533 14 275 1.7 8.7 0.00 0.00 0.00 68 1010.9
20230127233034 15 252 3.5 11.3 0.00 0.00 0.00 66 1010.3
20230127231530 15 231 4.3 10.4 0.00 0.00 0.00 66 1009.8
20230127230028 16 261 4.3 10.4 0.00 0.00 0.00 66 1009.3
20230127224539 16 200 2.6 9.6 0.00 0.00 0.00 65 1009.0
20230127223026 17 271 4.3 11.3 0.00 0.00 0.00 64 1008.7
20230127221527 18 254 4.3 13.9 0.00 0.00 0.00 64 1008.3
20230127220034 18 200 2.6 8.7 0.00 0.00 0.00 64 1008.0
20230127214533 19 251 4.3 10.4 0.00 0.00 0.00 61 1007.5
20230127213031 20 259 4.3 14.8 0.00 0.00 0.00 61 1007.1
20230127211532 20 300 6.1 13.0 0.00 0.00 0.00 61 1007.0
20230127210053 21 271 5.2 13.9 0.00 0.00 0.00 61 1006.7
20230127204531 20 265 6.1 14.8 0.00 0.00 0.00 63 1006.3
20230127203036 21 306 4.3 11.3 0.00 0.00 0.00 64 1006.1
20230127201528 20 257 5.2 16.5 0.00 0.00 0.00 67 1005.8
20230127200031 20 259 5.2 13.0 0.00 0.00 0.00 68 1005.6
20230127194528 20 254 5.2 14.8 0.00 0.00 0.00 68 1005.3
20230127193030 20 246 7.0 18.2 0.00 0.00 0.00 69 1005.2
20230127191533 21 259 5.2 13.9 0.00 0.00 0.00 69 1005.0
20230127190035 20 263 7.0 20.9 0.00 0.00 0.00 70 1004.8
20230127184534 20 264 8.7 17.4 0.00 0.00 0.00 70 1004.7
20230127183047 21 267 5.2 17.4 0.00 0.00 0.00 72 1004.4
20230127181526 21 279 5.2 14.8 0.00 0.00 0.00 73 1004.3
20230127180032 20 220 6.1 18.2 0.00 0.00 0.00 73 1004.0
20230127174534 21 315 7.0 15.6 0.00 0.00 0.00 73 1003.8
20230127173032 21 189 7.0 14.8 0.00 0.00 0.00 74 1003.4
20230127171539 20 196 7.0 16.5 0.00 0.00 0.00 75 1003.3
20230127170030 20 242 6.1 18.2 0.00 0.00 0.00 76 1003.1
20230127164529 21 260 5.2 15.6 0.00 0.00 0.00 77 1003.0
20230127163039 21 267 5.2 18.2 0.00 0.00 0.00 79 1002.6
20230127161531 22 277 8.7 15.6 0.00 0.00 0.00 80 1002.0
20230127160030 22 254 7.0 16.5 0.00 0.00 0.00 80 1001.6
20230127154528 22 244 8.7 17.4 0.00 0.00 0.00 80 1001.3
20230127153030 24 256 4.3 16.5 0.00 0.00 0.00 81 1000.7
20230127151528 24 238 7.0 14.8 0.00 0.00 0.00 80 1000.2
20230127150038 25 244 5.2 14.8 0.00 0.00 0.00 82 999.7
20230127144536 26 253 3.5 14.8 0.00 0.00 0.00 83 999.2
20230127143055 27 269 7.0 14.8 0.00 0.00 0.00 82 998.7
20230127141537 28 306 5.2 15.6 0.00 0.00 0.00 82 998.0
20230127140035 29 245 7.0 15.6 0.00 0.00 0.00 84 997.4
20230127134533 30 246 5.2 13.9 0.00 0.00 0.00 85 996.7
20230127133034 32 200 5.2 12.2 0.00 0.00 0.00 88 996.2
20230127131534 32 281 3.5 8.7 0.00 0.00 0.00 92 995.8
20230127130030 32 242 4.3 14.8 0.00 0.00 0.00 95 995.4
20230127124534 32 249 1.7 4.3 0.00 0.00 0.00 96 995.1
20230127123033 31 230 0.9 4.3 0.00 0.00 0.00 96 994.7
20230127121528 30 258 0.9 4.3 0.00 0.00 0.00 96 994.3
20230127120028 29 257 0.0 4.3 0.00 0.00 0.00 96 994.1
20230127114529 29 157 0.0 1.7 0.00 0.00 0.00 96 994.2
20230127113032 28 0 0.0 1.7 0.00 0.00 0.00 96 994.1
20230127111547 27 223 0.0 1.7 0.00 0.00 0.00 95 994.3
20230127110035 27 0 0.0 1.7 0.00 0.00 0.00 95 994.4
20230127104528 26 0 0.0 1.7 0.00 0.00 0.00 95 994.5
20230127103031 25 0 0.0 1.7 0.00 0.00 0.00 95 994.5
20230127101536 25 0 0.0 1.7 0.00 0.00 0.00 95 994.6
20230127100033 24 0 0.0 1.7 0.00 0.00 0.00 95 994.9
20230127094532 23 0 0.0 2.6 0.00 0.00 0.00 94 995.1
20230127093034 23 0 0.9 1.7 0.00 0.00 0.00 93 995.4
20230127091526 23 138 0.9 6.1 0.00 0.00 0.00 93 995.7
20230127090037 22 117 0.9 4.3 0.00 0.00 0.00 92 995.9
20230127084532 22 96 0.9 2.6 0.00 0.00 0.00 92 996.3
20230127083035 22 113 1.7 5.2 0.00 0.00 0.00 92 996.6
20230127081529 21 138 0.9 5.2 0.00 0.00 0.00 92 997.0
20230127080034 21 92 0.0 4.3 0.00 0.00 0.00 93 997.4
20230127074538 20 205 0.9 3.5 0.00 0.00 0.00 93 997.7
20230127073029 19 123 0.9 2.6 0.00 0.00 0.00 92 998.2
20230127071545 18 94 0.9 5.2 0.00 0.00 0.00 92 998.6
20230127070031 18 104 1.7 6.1 0.00 0.00 0.00 91 998.9
20230127064527 18 101 1.7 4.3 0.00 0.00 0.00 92 999.4
20230127063043 17 108 0.9 3.5 0.00 0.00 0.00 92 999.9
20230127061535 17 103 0.9 4.3 0.00 0.00 0.00 91 1000.4
20230127060038 16 84 0.9 4.3 0.00 0.00 0.00 91 1000.9
20230127054545 16 120 0.9 6.1 0.00 0.00 0.00 90 1001.4
20230127053031 15 115 0.9 5.2 0.00 0.00 0.00 89 1001.8
20230127051534 15 85 1.7 4.3 0.00 0.00 0.00 88 1002.4
20230127050029 15 88 1.7 8.7 0.00 0.00 0.00 86 1002.9
20230127044529 14 99 1.7 5.2 0.00 0.00 0.00 86 1003.1
20230127043028 14 90 0.9 5.2 0.00 0.00 0.00 86 1003.7
20230127041541 13 108 1.7 5.2 0.00 0.00 0.00 85 1004.5
20230127040032 13 118 1.7 3.5 0.00 0.00 0.00 84 1005.2
20230127034531 13 109 0.9 5.2 0.00 0.00 0.00 84 1005.8
20230127033026 13 98 1.7 3.5 0.00 0.00 0.00 84 1005.9
20230127031532 13 95 1.7 6.1 0.00 0.00 0.00 85 1006.2
20230127030039 13 125 0.9 3.5 0.00 0.00 0.00 85 1007.1
20230127024528 13 135 1.7 5.2 0.00 0.00 0.00 85 1007.5
20230127023034 13 128 1.7 7.0 0.00 0.00 0.00 85 1007.7
20230127021532 12 130 1.7 6.1 0.00 0.00 0.00 86 1007.8
20230127020035 12 163 0.9 4.3 0.00 0.00 0.00 86 1008.3
20230127014537 12 164 0.9 5.2 0.00 0.00 0.00 86 1008.7
20230127013032 12 90 0.9 3.5 0.00 0.00 0.00 85 1009.2
20230127011531 12 98 0.9 6.1 0.00 0.00 0.00 85 1009.8
20230127010034 12 145 0.9 4.3 0.00 0.00 0.00 83 1010.7
20230127004539 12 0 0.9 3.5 0.00 0.00 0.00 82 1011.3